Weather History for K2C8 - April, 2014

Change the Weather History Date:

Friday, April 11, 2014

  Actual Average (KGAF) Record (KGAF)
Temperature  
Mean Temperature 38 °F -  
Max Temperature 44 °F 51 °F 84 °F (1968)
Min Temperature 32 °F 30 °F 11 °F (1957)
Degree Days  
Heating Degree Days 27    
Moisture  
Dew Point 29 °F    
Average Humidity 69    
Maximum Humidity 81    
Minimum Humidity 61    
Precipitation  
Precipitation 0.00 in - - ()
Sea Level Pressure  
Sea Level Pressure 29.93 in    
Wind  
Wind Speed 9 mph (North)    
Max Wind Speed 14 mph    
Max Gust Speed 21 mph    
Visibility 10 miles    
Events      
Averages and records for this station are not official NWS values.
T = Trace of Precipitation, MM = Missing Value Source: NWS Daily Summary

Daily Weather History Graph

Daily Weather History Graph

Search for Another Location

Airport or City:

Trip Planner

Search our weather history database for the weather conditions in past years. The results will help you decide how hot, cold, wet, or windy it might be!

Date:

Astronomy

Apr. 11, 2014 Rise Set
Actual Time 6:47 AM CDT 8:16 PM CDT
Civil Twilight 6:14 AM CDT 8:49 PM CDT
Nautical Twilight 5:35 AM CDT 9:29 PM CDT
Astronomical Twilight 4:51 AM CDT 10:12 PM CDT
Moon 4:42 PM CDT (4/11) 5:01 AM CDT (4/11)
Length of Visible Light 14h 34m
Length of Day
13h 28m
Waxing Gibbous, 87% of the Moon is Illuminated
Apr 11
Waxing Gibbous
Apr 15
Full
Apr 22
Last Quarter
Apr 29
New
May 6
First Quarter

Hourly Weather History & Observations

Time (CDT) Temp. Windchill Dew Point Humidity Pressure Visibility Wind Dir Wind Speed Gust Speed Precip Events Conditions
12:15 AM 37.4 °F 31.4 °F 26.6 °F 65% 29.84 in 10.0 mi SW 8.1 mph - N/A   Clear
12:35 AM 37.4 °F 32.1 °F 26.6 °F 65% 29.84 in 10.0 mi WSW 6.9 mph - N/A   Clear
12:55 AM 37.4 °F 32.8 °F 26.6 °F 65% 29.83 in 10.0 mi WSW 5.8 mph - N/A   Clear
1:15 AM 37.4 °F 33.8 °F 26.6 °F 65% 29.83 in 10.0 mi SW 4.6 mph - N/A   Scattered Clouds
1:35 AM 37.4 °F 33.8 °F 26.6 °F 65% 29.83 in 10.0 mi SW 4.6 mph - N/A   Partly Cloudy
1:55 AM 37.4 °F 32.1 °F 26.6 °F 65% 29.83 in 10.0 mi SW 6.9 mph - N/A   Clear
2:15 AM 37.4 °F 34.9 °F 26.6 °F 65% 29.83 in 10.0 mi SW 3.5 mph - N/A   Clear
2:35 AM 35.6 °F 32.8 °F 26.6 °F 70% 29.83 in 10.0 mi WSW 3.5 mph - N/A   Clear
2:55 AM 35.6 °F 29.2 °F 26.6 °F 70% 29.83 in 10.0 mi WSW 8.1 mph - N/A   Clear
3:15 AM 37.4 °F 30.8 °F 26.6 °F 65% 29.83 in 10.0 mi WSW 9.2 mph - N/A   Clear
3:35 AM 37.4 °F 30.8 °F 26.6 °F 65% 29.83 in 10.0 mi WSW 9.2 mph - N/A   Partly Cloudy
3:55 AM 37.4 °F 30.3 °F 26.6 °F 65% 29.83 in 10.0 mi WSW 10.4 mph - N/A   Mostly Cloudy
4:15 AM 37.4 °F 30.8 °F 26.6 °F 65% 29.83 in 10.0 mi WSW 9.2 mph - N/A   Mostly Cloudy
4:35 AM 37.4 °F 30.8 °F 26.6 °F 65% 29.83 in 10.0 mi WSW 9.2 mph - N/A   Scattered Clouds
4:55 AM 37.4 °F 32.1 °F 26.6 °F 65% 29.83 in 10.0 mi West 6.9 mph - N/A   Mostly Cloudy
5:15 AM 35.6 °F 29.2 °F 28.4 °F 75% 29.84 in 10.0 mi West 8.1 mph - N/A   Scattered Clouds
5:35 AM 37.4 °F 31.4 °F 28.4 °F 70% 29.84 in 10.0 mi West 8.1 mph - N/A   Clear
5:55 AM 37.4 °F 30.8 °F 28.4 °F 70% 29.84 in 10.0 mi West 9.2 mph - N/A   Scattered Clouds
6:15 AM 39.2 °F 32.5 °F 28.4 °F 65% 29.85 in 10.0 mi WNW 10.4 mph - N/A   Mostly Cloudy
6:35 AM 39.2 °F 32.0 °F 28.4 °F 65% 29.86 in 10.0 mi NW 11.5 mph - N/A   Scattered Clouds
6:55 AM 41.0 °F 34.3 °F 28.4 °F 61% 29.86 in 10.0 mi NW 11.5 mph - N/A   Clear
7:15 AM 39.2 °F 33.6 °F 28.4 °F 65% 29.87 in 10.0 mi WNW 8.1 mph - N/A   Scattered Clouds
7:55 AM 37.4 °F 32.1 °F 30.2 °F 75% 29.88 in 10.0 mi NW 6.9 mph - N/A   Partly Cloudy
8:15 AM 41.0 °F 35.8 °F 30.2 °F 65% 29.89 in 10.0 mi NNW 8.1 mph - N/A   Partly Cloudy
8:35 AM 41.0 °F 35.2 °F 30.2 °F 65% 29.90 in 10.0 mi NW 9.2 mph - N/A   Partly Cloudy
8:55 AM 41.0 °F 35.2 °F 30.2 °F 65% 29.91 in 10.0 mi NW 9.2 mph 16.1 mph N/A   Mostly Cloudy
9:15 AM 41.0 °F 36.4 °F 32.0 °F 70% 29.91 in 10.0 mi NNW 6.9 mph - N/A   Scattered Clouds
9:35 AM 41.0 °F 35.2 °F 32.0 °F 70% 29.90 in 10.0 mi NNW 9.2 mph - N/A   Clear
9:55 AM 41.0 °F 35.2 °F 33.8 °F 76% 29.91 in 10.0 mi NNW 9.2 mph - N/A   Partly Cloudy
10:15 AM 42.8 °F 38.0 °F 35.6 °F 76% 29.91 in 10.0 mi NNW 8.1 mph - N/A   Partly Cloudy
10:35 AM 44.6 °F 39.2 °F 35.6 °F 71% 29.92 in 10.0 mi North 10.4 mph - N/A   Clear
10:55 AM 44.6 °F 38.8 °F 35.6 °F 71% 29.93 in 10.0 mi North 11.5 mph - N/A   Scattered Clouds
11:15 AM 44.6 °F 39.2 °F 35.6 °F 71% 29.93 in 10.0 mi North 10.4 mph - N/A   Mostly Cloudy
11:35 AM 42.8 °F 36.2 °F 37.4 °F 81% 29.94 in 10.0 mi NNE 12.7 mph - N/A   Overcast
11:55 AM 41.0 °F 33.5 °F 35.6 °F 81% 29.96 in 10.0 mi North 13.8 mph 18.4 mph N/A   Overcast
12:15 PM 41.0 °F 34.3 °F 33.8 °F 76% 29.97 in 10.0 mi North 11.5 mph 18.4 mph N/A   Overcast
12:35 PM 41.0 °F 34.3 °F 32.0 °F 70% 29.97 in 10.0 mi North 11.5 mph 17.3 mph N/A   Overcast
12:55 PM 41.0 °F 34.7 °F 30.2 °F 65% 29.98 in 10.0 mi NE 10.4 mph 18.4 mph N/A   Scattered Clouds
1:15 PM 41.0 °F 34.7 °F 30.2 °F 65% 29.98 in 10.0 mi NNE 10.4 mph 18.4 mph N/A   Clear
1:35 PM 42.8 °F 36.6 °F 32.0 °F 66% 29.98 in 10.0 mi NNE 11.5 mph - N/A   Clear
1:55 PM 41.0 °F 34.3 °F 32.0 °F 70% 29.98 in 10.0 mi NE 11.5 mph 17.3 mph N/A   Clear
2:15 PM 42.8 °F 36.6 °F 32.0 °F 66% 29.98 in 10.0 mi NE 11.5 mph - N/A   Clear
2:35 PM 44.6 °F 38.8 °F 32.0 °F 61% 29.98 in 10.0 mi NE 11.5 mph - N/A   Partly Cloudy
2:55 PM 42.8 °F 36.6 °F 32.0 °F 66% 29.98 in 10.0 mi NE 11.5 mph 20.7 mph N/A   Mostly Cloudy
3:15 PM 42.8 °F 37.5 °F 32.0 °F 66% 29.98 in 10.0 mi NNE 9.2 mph - N/A   Mostly Cloudy
3:35 PM 42.8 °F 36.2 °F 32.0 °F 66% 29.97 in 10.0 mi NNE 12.7 mph 18.4 mph N/A   Mostly Cloudy
3:55 PM 44.6 °F 38.4 °F 32.0 °F 61% 29.97 in 10.0 mi NNE 12.7 mph 18.4 mph N/A   Mostly Cloudy
4:15 PM 42.8 °F 35.8 °F 32.0 °F 66% 29.97 in 10.0 mi NNE 13.8 mph - N/A   Partly Cloudy
4:35 PM 42.8 °F 36.6 °F 32.0 °F 66% 29.97 in 10.0 mi NE 11.5 mph 16.1 mph N/A   Clear
4:55 PM 41.0 °F 33.5 °F 32.0 °F 70% 29.98 in 10.0 mi NE 13.8 mph - N/A   Partly Cloudy
5:15 PM 41.0 °F 33.9 °F 32.0 °F 70% 29.98 in 10.0 mi NNE 12.7 mph 16.1 mph N/A   Partly Cloudy
5:35 PM 39.2 °F 32.0 °F 32.0 °F 75% 29.99 in 10.0 mi NE 11.5 mph 17.3 mph N/A   Clear
5:55 PM 39.2 °F 31.6 °F 30.2 °F 70% 30.00 in 10.0 mi NNE 12.7 mph - N/A   Clear
6:15 PM 39.2 °F 31.2 °F 28.4 °F 65% 29.99 in 10.0 mi NNE 13.8 mph 17.3 mph N/A   Clear
6:35 PM 37.4 °F 30.3 °F 28.4 °F 70% 30.00 in 10.0 mi NNE 10.4 mph - N/A   Clear
6:55 PM 37.4 °F 29.3 °F 28.4 °F 70% 30.00 in 10.0 mi NNE 12.7 mph - N/A   Clear
7:15 PM 37.4 °F 29.3 °F 28.4 °F 70% 30.00 in 10.0 mi NNE 12.7 mph 17.3 mph N/A   Clear
7:35 PM 35.6 °F 26.6 °F 26.6 °F 70% 29.99 in 10.0 mi NE 13.8 mph 19.6 mph N/A   Clear
7:55 PM 35.6 °F 26.6 °F 26.6 °F 70% 29.99 in 10.0 mi NNE 13.8 mph - N/A   Clear
8:15 PM 33.8 °F 25.3 °F 24.8 °F 70% 30.00 in 10.0 mi NNE 11.5 mph 18.4 mph N/A   Clear
8:35 PM 32.0 °F 23.0 °F 24.8 °F 75% 30.01 in 10.0 mi NNE 11.5 mph 16.1 mph N/A   Clear
8:55 PM 32.0 °F 23.0 °F 24.8 °F 75% 30.01 in 10.0 mi NNE 11.5 mph 16.1 mph N/A   Clear
9:15 PM 32.0 °F 23.6 °F 24.8 °F 75% 30.01 in 10.0 mi NNE 10.4 mph - N/A   Clear
9:35 PM 32.0 °F 24.2 °F 24.8 °F 75% 30.01 in 10.0 mi NNE 9.2 mph - N/A   Clear
9:55 PM 32.0 °F 23.0 °F 23.0 °F 69% 30.01 in 10.0 mi NE 11.5 mph - N/A   Clear
10:15 PM 32.0 °F 24.8 °F 24.8 °F 75% 30.00 in 10.0 mi NE 8.1 mph - N/A   Clear
10:35 PM 32.0 °F 24.2 °F 24.8 °F 75% 29.99 in 10.0 mi NE 9.2 mph - N/A   Clear
10:55 PM 32.0 °F 24.8 °F 24.8 °F 75% 29.99 in 10.0 mi NE 8.1 mph - N/A   Clear
11:15 PM 32.0 °F 25.6 °F 24.8 °F 75% 29.99 in 10.0 mi NNE 6.9 mph - N/A   Clear
11:35 PM 32.0 °F 24.8 °F 23.0 °F 69% 29.98 in 10.0 mi NE 8.1 mph - N/A   Clear
11:55 PM 32.0 °F 25.6 °F 24.8 °F 75% 29.97 in 10.0 mi NNE 6.9 mph - N/A   Clear